Location: Berlin
(52.5171°N, 13.3759°E)
Time: 07:41:12
(UTC+01:00)

ISS - Pass Details

Date: 11 November 2017
Orbit: 402 x 407 km, 51.6° (Epoch: 21 November)

Event Time Altitude Azimuth Distance (km) Brightness Sun altitude
Exits shadow 05:09:52 70° 172° (S) 432 -3.8 -19.9°
Drops below altitude 10° 05:13:01 10° 105° (ESE) 1,456 0.2 -19.4°
Sets 05:15:06 0° 103° (ESE) 2,315 1.6 -19.1°
